Flag for Kazakhstan Weather past 2 weeks in Almaty, Kazakhstan

Now
73 °F

Scattered clouds.


Feels Like: 76 °F
Forecast: 52 / 70 °F
Wind: 8 mph from North

Location: Almaty Airport

Current Time: May 23, 2015 at 1:21:36 PM

Latest Report: May 23, 2015 at 1:00 PM


Visibility: N/A

Pressure: 29.86 "Hg

Humidity: 22%

Dew point: 32 °F

Location of AlmatyLocation

Historic Weather in Almaty — Graph

°F

Almaty temperature yesterday

Maximum temperature yesterday: 64 °F (at 1:30 PM)
Minimum temperature yesterday: 57 °F (at 12:00 AM)
Average temperature yesterday: 60 °F

Past Weeks' High & Low Weather Summary

 TemperatureHumidityPressure
High86 °F (May 16, 2:00 PM)94% (May 10, 1:30 AM)30.21 "Hg (May 10, 1:30 AM)
Low50 °F (May 10, 4:00 AM)20% (May 14, 4:00 PM)29.65 "Hg (May 9, 3:00 AM)
Average66 °F60%29.97 "Hg
* Reported May 8 12:00 Noon — May 23 12:00 Noon, Almaty, Weather by CustomWeather, © 2015

Note: Actual official high and low records may vary slightly from our data, if they occured in-between our weather recording intervals... More about our weather records

Advertising

Almaty weather history for previous 24 hours

 ConditionsComfort  
Time TempWeatherWind HumidityBarometerVisibility
12:00 PM
Sat, May 23
73 °FScattered clouds.6 mph25%29.86 "HgN/A
11:30 AM72 °FPassing clouds.3 mph27%29.89 "HgN/A
11:00 AM72 °FPassing clouds.6 mph27%29.89 "HgN/A
10:30 AM72 °FPassing clouds.3 mph27%29.89 "HgN/A
10:00 AM72 °FScattered clouds.6 mph29%29.89 "HgN/A
9:30 AM72 °FPartly sunny.6 mph25%29.92 "HgN/A
9:00 AM72 °FPartly sunny.6 mph38%29.92 "HgN/A
8:30 AM68 °FPartly sunny.3 mph38%29.95 "HgN/A
8:00 AM64 °FPartly sunny.3 mph52%29.95 "HgN/A
7:30 AM63 °FBroken clouds.3 mph49%29.95 "HgN/A
7:00 AM59 °FBroken clouds.6 mph51%29.98 "HgN/A
6:30 AM57 °FBroken clouds.6 mph55%29.98 "HgN/A
6:00 AM57 °FBroken clouds.8 mph55%29.98 "HgN/A
5:30 AM57 °FBroken clouds.8 mph59%29.98 "HgN/A
5:00 AM57 °FPartly cloudy.8 mph59%29.98 "HgN/A
4:30 AM57 °FMostly cloudy.8 mph59%30.01 "HgN/A
4:00 AM57 °FMostly cloudy.10 mph59%30.01 "HgN/A
3:30 AM57 °FMostly cloudy.10 mph63%30.01 "HgN/A
3:00 AM57 °FMostly cloudy.10 mph72%30.01 "HgN/A
2:30 AM59 °FMostly cloudy.6 mph68%30.01 "HgN/A
2:00 AM57 °FMostly cloudy.6 mph82%30.01 "HgN/A
1:30 AM57 °FMostly cloudy.3 mph82%29.98 "HgN/A
1:00 AM57 °FMostly cloudy.6 mph82%29.98 "HgN/A
12:30 AM57 °FSprinkles. Mostly cloudy.3 mph82%30.01 "HgN/A
12:00 AM59 °FSprinkles. Mostly cloudy.8 mph82%30.01 "HgN/A
11:30 PM
Fri, May 22
59 °FMostly cloudy.6 mph82%30.01 "HgN/A
11:00 PM59 °FSprinkles. Mostly cloudy.6 mph82%30.01 "HgN/A
10:30 PM59 °FMostly cloudy.8 mph77%29.98 "HgN/A
10:00 PM57 °FMostly cloudy.6 mph88%30.01 "HgN/A
9:30 PM57 °FSprinkles. Mostly cloudy.6 mph82%30.01 "HgN/A
9:00 PM59 °FSprinkles. Mostly cloudy.6 mph82%30.04 "HgN/A
8:30 PM61 °FSprinkles. Mostly cloudy.8 mph77%30.01 "HgN/A
8:00 PM61 °FPartly sunny.3 mph77%30.01 "HgN/A
7:30 PM63 °FMore clouds than sun.3 mph68%29.98 "HgN/A
7:00 PM63 °FMore clouds than sun.3 mph68%29.98 "HgN/A
6:30 PM63 °FMore clouds than sun.3 mph68%29.98 "HgN/A
6:00 PM64 °FMore clouds than sun.6 mph60%29.98 "HgN/A
5:30 PM64 °FBroken clouds.1 mph60%29.98 "HgN/A
5:00 PM64 °FBroken clouds.3 mph60%29.98 "HgN/A
4:30 PM64 °FMore clouds than sun.3 mph56%29.98 "HgN/A
4:00 PM64 °FMore clouds than sun.3 mph56%29.98 "HgN/A
3:30 PM64 °FMore clouds than sun.3 mph56%29.98 "HgN/A
3:00 PM64 °FMore clouds than sun.3 mph56%29.98 "HgN/A
2:30 PM64 °FMore clouds than sun.3 mph56%29.98 "HgN/A
2:00 PM64 °FMore clouds than sun.3 mph56%29.98 "HgN/A
1:30 PM64 °FMore clouds than sun.1 mph52%29.98 "HgN/A
1:00 PM63 °FMore clouds than sun.3 mph64%29.98 "HgN/A
Weather by CustomWeather, © 2015

See weather overviewHow to use our weather pages